Location: Drocourt
(49.0571°N, 1.7669°E)
Time: 20:04:05
(UTC+00:00)

Transit 4A - Pass Details

Date: 22 April 2024
Orbit: 871 x 971 km, 66.8° (Epoch: 18 May)

Event Time Altitude Azimuth Distance (km) Brightness Sun altitude
Rises 17:15:00 0° 314° (NW) 3,483 11.7 15.4°
Reaches altitude 10° 17:18:48 10° 338° (NNW) 2,534 10.6 14.7°
Maximum altitude 17:21:56 15° 11° (N) 2,217 9.9 14.2°
Drops below altitude 10° 17:25:05 10° 44° (NE) 2,529 9.9 13.7°
Sets 17:28:51 0° 68° (ENE) 3,470 10.3 13.1°
